Regional Weather Roundup
Issued by NWS Wilmington, NC

Home | Current Version | Previous Version | Text Only | Print | Product List | Glossary On
Versions: 1 2 3 4 5 6 7 8 9 10 11 12 13 14 15 16 17 18 19 20 21 22 23 24 25 26
000
ASUS42 KILM 260813
RWRILM
RWRILM
REGIONAL HOURLY WEATHER ROUNDUP
NATIONAL WEATHER SERVICE WILMINGTON NC
400 AM EDT WED APR 26 2017

NOTE: "FAIR" INDICATES FEW OR NO CLOUDS BELOW 12,000 FEET WITH NO
SIGNIFICANT WEATHER AND/OR OBSTRUCTIONS TO VISIBILITY.

...............WFO WILMINGTON COUNTY WARNING AREA...............

......COASTAL NC AND SC COUNTIES......

CITY           SKY/WX    TMP DP  RH WIND       PRES   REMARKS
WILMINGTON     CLOUDY    62  60  93 W8        29.75S
N MYRTLE BEACH PTCLDY    61  59  93 W3        29.76F
MYRTLE BEACH   CLOUDY    61  59  93 CALM      29.78S

......INLAND NC AND SC COUNTIES.......

CITY           SKY/WX    TMP DP  RH WIND       PRES   REMARKS
LUMBERTON      CLEAR     58  57  97 CALM      29.76R
ELIZABETHTOWN  CLOUDY    61  60  96 W3        29.76R
WHITEVILLE     CLEAR     58  57  97 CALM      29.76S FOG
FLORENCE       MOCLDY    59  58  96 CALM      29.77S
DARLINGTON     PTCLDY    59  58  96 CALM      29.77S
KINGSTREE      FAIR      59  57  94 CALM      29.77S
HARTSVILLE     MOCLDY    59  57  94 CALM      29.76S
BENNETTSVILLE  MOCLDY    59  59 100 CALM      29.76S
CONWAY         CLOUDY    55  55 100 CALM      29.77F
GEORGETOWN     FAIR      59  57  94 CALM      29.78F
MARION         CLOUDY    55  55 100 CALM      29.77S

....................REST OF NORTH CAROLINA......................

.........EASTERN NC.........

CITY           SKY/WX    TMP DP  RH WIND       PRES   REMARKS
CAPE HATTERAS  MOCLDY    67  62  84 W8        29.69S
JACKSONVILLE   CLOUDY    61  60  97 SW3       29.74S
MOREHEAD CITY  PTCLDY    61  61 100 W7        29.72S
KENANSVILLE    CLOUDY    61  59  94 CALM      29.74S
NEW BERN       CLOUDY    60  60 100 W3        29.73S
ELIZABETH CITY CLOUDY    63  63 100 W7        29.67S

.........CENTRAL NC.........

CITY           SKY/WX    TMP DP  RH WIND       PRES   REMARKS
RALEIGH DURHAM CLOUDY    59  56  89 NW3       29.76R
ROCKY MOUNT    CLOUDY    61  60  97 W5        29.73S
ROANOKE RAPIDS NOT AVBL
FAYETTEVILLE   CLOUDY    63  58  83 W6        29.75S
HOFFMAN        MOCLDY    56  56  98 CALM      29.77R

.........WESTERN NC.........

CITY           SKY/WX    TMP DP  RH WIND       PRES   REMARKS
CHARLOTTE      PTCLDY    57  55  93 CALM      29.76F
GREENSBORO     CLOUDY    57  56  96 CALM      29.76S
HICKORY        NOT AVBL
BOONE          NOT AVBL
ASHEVILLE      NOT AVBL

.....................REST OF SOUTH CAROLINA.....................

.........EASTERN SC.........

CITY           SKY/WX    TMP DP  RH WIND       PRES   REMARKS
CHARLESTON     PTCLDY    63  59  87 SE5       29.77F
BEAUFORT MCAS  FOG       63  63 100 CALM      29.76F VSB 1/2
HILTON HEAD    CLEAR     64  64 100 CALM      29.77S

.........CENTRAL SC.........

CITY           SKY/WX    TMP DP  RH WIND       PRES   REMARKS
COLUMBIA       PTCLDY    63  59  87 CALM      29.76S
ORANGEBURG     CLOUDY    63  60  90 S3        29.77S
SUMTER SHAW    CLOUDY    62  59  90 SW3       29.74F

.........WESTERN SC.........

CITY           SKY/WX    TMP DP  RH WIND       PRES   REMARKS
GREENVILLE     NOT AVBL
ROCK HILL      FOG       54  54 100 CALM      29.76S VSB 3/4
ANDERSON       CLEAR     59  56  89 CALM      29.74F
CLEMSON        NOT AVBL
GREENWOOD      CLEAR     58  56  93 S3        29.76S


...................COASTAL AND OFFSHORE REPORTS..................

................LOCAL PIERS AND NC RESERVE................


STATION/POSITION TIME  SKY/WX   TEMP    WIND        PRES    VSBY
                                AIR SEA DIR/SP/G
                 (UTC)          (F)     (DEG/KT/KT) (MB)    (MI)
JOHNY MRCER PIER 0742            62 71  260/  3/  5 1006.4S
NC RESRV MASNBRO 0645            60     280/  1     1008.0
OCEAN CREST PIER NOT AVBL
SPRINGMAID  PIER 0748                               1007.3F


................COASTAL AND OFFSHORE BUOYS................


STATION/POSITION TIME  SKY/WX   TEMP    WIND        PRES    VSBY
                                AIR SEA DIR/SP/G
                 (UTC)          (F)     (DEG/KT/KT) (MB)    (MI)
DIMNDSHOAL 41025 0750            69 77  270/ 16/ 21 1005.3R
WVE H/P(F/S)=  8/ 9 SWL H/P/D(F/S/D)=  7/150/ 9

CAPE LOOKOUT     0800            63     260/  8/  9 1006.1S
ONSLOW BAY 41036 NOT AVBL
ONSLOW BAY 41064 0708            65     290/ 12/ 17 1006.9F
ONSLOW BAY 41159 0743               71                N/A
WVE H/P(F/S)=  6/ 9 SWL H/P/D(F/S/D)=  2/140/11

MASNBO INL 41110 0759               70                N/A
WVE H/P(F/S)=  3/ 8

WILM HARBR 41108 0747               70                N/A
WVE H/P(F/S)=  4/ 9

27SE WRITB 41037 0708            66 71  280/ 14/ 21 1006.6R
FRYING PAN 41013 0800            69 74  270/ 12/ 16 1007.5
SUNST NRSH 41024 0708            65 69  290/ 10/ 12 1007.7F
CAPRS NRSH 41029 0708            73 71   90/  4/  6 1008.5F
EDISTO     41004 0750            70 72  360/  4/  6 1008.3F
WVE H/P(F/S)=  4/ 9 SWL H/P/D(F/S/D)=  3/110/ 9



..........OFFSHORE BUOYS BEYOND 100 NM OFFSHORE...........
.....IN A TRIANGLE---HAT TO BERMUDA TO BAHAMAS TO HAT.....


STATION/POSITION TIME  SKY/WX   TEMP    WIND        PRES    VSBY
                                AIR SEA DIR/SP/G
                 (UTC)          (F)     (DEG/KT/KT) (MB)    (MI)
150E HAT   41001 0800            68 72  230/ 21/ 27 1007.0
W BERMUDA  41048 0800            71 70  180/ 17/ 21 1012.3
ATLANTIC S 41049 0750            72 72  120/ 12/ 14 1017.3R
WVE H/P(F/S)=  6/ 6 SWL H/P/D(F/S/D)=  5/170/ 6

E BAHAMAS  41046 0800            75 77  110/  6/  8 1013.6
NE BAHAMAS 41047 0750            74 74  250/  6/  8 1013.1F
WVE H/P(F/S)=  6/ 8 SWL H/P/D(F/S/D)=  5/140/ 8

120E CANVRL41010 0800            74 78  190/ 16/ 19 1010.3

END




USA.gov is the U.S. government's official web portal to all federal, state and local government web resources and services.